#timestamp,LO_Frequency,Hit,StdDev 
1673071215.9,286046999.0,N
1673071235.7,286046996.6,N
1673071255.6,286046996.9,N
1673071275.4,286046999.5,N
1673071295.3,286046996.7,N
1673071315.1,286046999.6,N
1673071316.0,286046999.6,N
1673071335.8,286046999.1,N
1673071355.7,286046999.6,N
1673071375.5,286046996.6,N
1673071395.3,286046997.9,N
1673071415.2,286046997.6,N
1673071435.0,286046996.2,N
1673071435.9,286046996.2,N
1673071455.8,286046995.8,Y
1673071475.6,286046996.6,P
1673071495.4,286046998.1,N
1673071515.3,286046998.7,N
1673071535.1,286047000.5,N
1673071555.8,286047000.7,N
1673071575.7,286046998.6,N
1673071595.5,286047001.0,N
1673071615.4,286047000.6,N
1673071635.2,286047000.6,N
1673071655.0,286047001.1,N
1673071655.9,286047001.1,N
1673071675.8,286047000.5,N
1673071695.6,286047000.4,N
1673071715.4,286046999.9,N
1673071735.3,286047000.8,N
1673071755.1,286047000.7,N
1673071775.9,286047000.3,N
1673071795.7,286047000.2,N
1673071815.5,286047000.0,N
1673071835.4,286046998.4,N
1673071885.2,286046999.1,E
1673071895.2,286046996.5,N
1673071915.9,286046998.5,P
1673071935.7,286046998.1,N
1673071955.6,286046998.2,N
1673071975.4,286047001.2,N
1673071995.3,286046998.5,N
1673072015.1,286047001.2,N
1673072016.0,286047001.2,N
1673072035.8,286046999.9,N
1673072055.7,286047000.4,N
1673072075.5,286047000.5,N
1673072095.3,286047000.4,N
1673072115.2,286047000.4,N
1673072135.0,286047002.5,N
1673072135.9,286047002.5,N
1673072155.8,286047004.3,N
1673072175.6,286047004.0,N
1673072195.4,286047001.5,N
1673072215.3,286047002.1,N
1673072235.1,286047002.1,N
1673072255.8,286047001.6,N
1673072275.7,286047002.0,N
1673072295.5,286047002.6,N
1673072315.4,286047002.7,N
1673072335.2,286046999.7,N
1673072355.0,286047000.4,N
1673072355.9,286047000.4,N
1673072375.8,286047001.0,N
1673072395.6,286047001.2,N
1673072415.5,286046999.9,N
1673072435.3,286047000.7,N
1673072455.1,286046999.9,N
1673072475.9,286046998.6,N
1673072495.7,286047000.6,N
1673072515.6,286047000.4,N
1673072535.4,286046998.6,N
1673072555.2,286046998.4,N
1673072575.1,286046998.7,N
1673072576.0,286046998.7,N
1673072595.8,286046998.2,N
1673072615.6,286046998.1,N
1673072635.5,286047000.8,N
1673072655.3,286046998.5,N
1673072675.2,286046998.2,N
1673072695.0,286047000.7,N
1673072695.9,286047000.7,N
1673072715.8,286046998.6,N
1673072735.6,286047001.2,N
1673072755.4,286046998.2,N
1673072775.3,286046998.5,N
1673072795.1,286047000.7,N
1673072815.9,286047000.7,N
1673072835.7,286047000.9,N
1673072855.5,286047000.9,N
1673072875.4,286046998.9,N
1673072895.2,286046998.6,N
1673072915.0,286047003.6,Y
1673072916.0,286047003.6,P
1673072935.8,286047015.6,P
1673072955.6,286047014.0,N
1673072975.5,286047008.8,N
1673072995.3,286047005.7,N
1673073015.1,286047003.1,N
1673073035.9,286047004.3,N
1673073055.7,286047003.6,N
1673073075.6,286047001.5,N
1673073095.4,286047002.2,N
1673073115.2,286047002.5,N
1673073135.1,286047002.4,N
1673073136.0,286047002.4,N
1673073155.8,286047002.2,N
1673073175.6,286047002.3,N
1673073195.5,286047000.1,N
1673073215.3,286047002.6,N
1673073235.2,286046999.8,N
1673073255.9,286047000.0,N
1673073275.7,286046999.9,N
1673073295.6,286046999.8,N
1673073315.4,286046999.7,N
1673073335.2,286047002.3,N
1673073355.1,286047002.6,N
1673073356.0,286047002.6,N
1673073375.8,286047002.2,N
1673073395.7,286047002.6,N
1673073415.5,286047001.2,N
1673073435.3,286046996.5,N
1673073455.2,286046999.6,N
1673073475.9,286046996.8,N
1673073495.7,286046997.2,N
1673073515.6,286046996.8,N
1673073535.4,286046997.7,N
1673073555.3,286046997.8,N
1673073575.1,286046995.6,N
1673073576.0,286046995.6,N
1673073595.8,286046995.8,N
1673073615.7,286046995.5,N
1673073635.5,286046999.6,N
1673073655.4,286046997.0,N
1673073675.2,286046997.1,N
1673073695.0,286046996.9,N
1673073695.9,286046996.9,N
1673073715.8,286047000.7,N
1673073735.6,286046998.4,N
1673073755.4,286046999.3,N
1673073775.3,286047001.2,N
1673073795.1,286046998.3,N
1673073815.9,286046998.5,N
1673073835.7,286047000.7,N
1673073855.5,286046998.1,N
1673073875.4,286047001.0,N
1673073895.2,286047000.7,N
1673073915.0,286047000.1,N
1673073915.9,286047000.1,N
1673073935.8,286047000.4,N
1673073955.6,286046998.1,N
1673073975.5,286047001.1,N
1673073995.3,286047002.2,N
1673074015.1,286047003.9,N
1673074035.9,286047001.5,N
1673074055.7,286047003.7,N
1673074075.5,286047002.7,N
1673074095.4,286047000.5,N
1673074115.2,286047000.1,N
1673074135.1,286046999.8,N
1673074136.0,286046999.8,N
1673074155.8,286047000.9,N
1673074175.6,286047000.8,N
1673074195.5,286047000.1,N
1673074215.3,286047002.4,N
1673074235.1,286046999.7,N
1673074255.9,286047000.4,N
1673074275.7,286046999.4,N
1673074295.6,286046999.3,N
1673074315.4,286047000.3,N
1673074335.2,286046999.2,N
1673074355.1,286046997.2,N
1673074356.0,286046997.2,N
1673074375.8,286046999.0,N
1673074395.7,286046998.1,N
1673074415.5,286047000.0,N
1673074435.3,286047001.9,N
1673074455.2,286047002.3,N
1673074475.0,286047002.0,N
1673074475.9,286047002.0,N
1673074495.7,286047000.1,N
1673074515.6,286047002.4,N
1673074535.4,286047002.5,N
1673074555.3,286047002.3,N
1673074575.1,286047001.0,N
1673074576.0,286047001.0,N
1673074595.8,286046998.8,N
1673074615.7,286047011.9,Y
1673074635.5,286046998.8,P
1673074655.4,286046998.8,N
1673074675.2,286047000.4,N
1673074695.0,286046998.1,N
1673074695.9,286046998.1,N
1673074715.8,286047002.7,N
1673074735.6,286047002.6,N
1673074755.4,286047002.6,N
1673074775.3,286047001.3,N
1673074795.1,286047001.5,N
